[[{"header":{"parameterUnit":"m.s-1","parameterCategory":1,"la1":30.2991,"la2":30.254,"lo1":-89.0895,"lo2":-89.0444,"dy":0.0017,"dx":0.0017,"nx":28,"ny":28,"refTime":"2024-02-11T03:00:00:Z","depth":0,"parameterNumber":2,"parameterNumberName":"U-component_of_WINDS"},"data":[0,0,0,0,0,0,0,0,0,0,0,0,0,0,0,0,0,0,0,0,0,0,0,0,0,0,0,0,0,0,0,0,0,0,0,0,0,0,0,0,0,0,0,0,0,0,0,0,0,0,0,0,0,0,0,0,0,0,-1.7921,-1.7921,0,-1.7913,-1.7913,-1.7912,-1.7871,-1.787,-1.7869,-1.7868,-1.786,-1.7861,-1.7861,0,0,0,0,0,0,0,0,0,0,0,0,0,-1.7905,-1.7905,-1.7921,-1.7921,-1.7921,-1.7913,-1.7913,-1.7912,-1.7871,-1.787,-1.7869,-1.7868,-1.786,-1.7861,-1.7861,0,0,0,0,0,0,0,0,0,0,0,0,0,-1.7905,-1.7905,-1.7921,-1.79,-1.7898,-1.7913,-1.7913,-1.7912,-1.7871,-1.787,-1.7869,-1.7867,-1.786,-1.7861,-1.7862,-1.7897,0,0,-1.7865,-1.7865,0,0,0,0,0,0,0,0,-1.7905,-1.7906,-1.7903,-1.7901,-1.7899,-1.7891,-1.7903,-1.7907,-1.7872,-1.7881,-1.7868,-1.7866,-1.7872,-1.7872,-1.7873,-1.7897,-1.7897,-1.7865,-1.7865,-1.7866,-1.7866,0,0,0,0,0,0,0,-1.7905,-1.7906,-1.7918,-1.7903,-1.79,-1.7891,-1.7889,-1.7904,-1.7885,-1.788,-1.7877,-1.7877,-1.787,-1.7872,-1.7873,-1.7896,-1.7865,-1.7866,-1.7866,-1.7867,-1.7949,-1.7951,0,0,0,0,0,0,-1.7908,-1.7906,-1.7918,-1.7918,-1.7899,-1.7892,-1.7891,-1.7895,-1.7885,-1.7882,-1.7878,-1.7875,-1.7871,-1.7872,-1.7872,-1.7913,-1.7866,-1.7867,-1.7867,-1.7948,-1.795,-1.7951,0,0,0,0,0,0,-1.7908,-1.791,-1.7919,-1.7911,-1.7912,-1.7894,-1.79,-1.7896,-1.7898,-1.7883,-1.7879,-1.7884,-1.787,-1.7871,-1.7891,-1.7912,-1.7867,-1.7868,-1.7946,-1.7948,-1.7951,-1.7995,0,0,0,0,0,0,-1.7908,-1.791,-1.7923,-1.7912,-1.7912,-1.7937,-1.7901,-1.7897,-1.79,-1.7895,-1.7887,-1.7884,-1.7869,-1.789,-1.7892,-1.7913,-1.7869,-1.7944,-1.7947,-1.795,-1.7991,-1.7998,-1.8004,0,0,0,0,0,-1.7907,-1.7935,-1.7923,-1.7925,-1.7928,-1.7938,-1.7939,-1.792,-1.7901,-1.7914,-1.7905,-1.7884,-1.791,-1.7893,-1.7895,-1.7916,-1.7943,-1.7946,-1.795,-1.7988,-1.7997,-1.8004,0,0,0,0,0,0,-1.7949,-1.7933,-1.792,-1.7945,-1.7944,-1.7931,-1.7947,-1.793,-1.7934,-1.7929,-1.7907,-1.7906,-1.7929,-1.7925,-1.7906,-1.795,-1.7923,-1.7927,-1.7951,-1.7959,-1.7966,-1.7965,-1.787,0,0,0,0,0,-1.7961,-1.7971,-1.7957,-1.7981,-1.7981,-1.7964,-1.7968,-1.7955,-1.7952,-1.7951,-1.7943,-1.7941,-1.7949,-1.7954,-1.7961,-1.7991,-1.7989,-1.8007,-1.8014,-1.8019,-1.8022,-1.8038,-1.8046,-1.7963,-1.7963,-1.7963,0,0,-1.7986,-1.7979,-1.7986,-1.7989,-1.7986,-1.7997,-1.7964,-1.7976,-1.7984,-1.7953,-1.7971,-1.7966,-1.7963,-1.7989,-1.8,-1.7985,-1.8045,-1.8023,-1.8028,-1.8028,-1.8042,-1.805,-1.8057,-1.7965,-1.7965,-1.7965,0,0,-1.8037,-1.8033,-1.8052,-1.805,-1.8046,-1.8035,-1.804,-1.8031,-1.8026,-1.8044,-1.8021,-1.8031,-1.8044,-1.8043,-1.8044,-1.8097,-1.8078,-1.81,-1.8133,-1.8149,-1.8155,-1.8161,-1.8178,-1.8185,-1.8104,-1.8104,-1.8104,0,-1.8068,-1.8083,-1.8064,-1.8078,-1.808,-1.8053,-1.8073,-1.8072,-1.807,-1.8072,-1.8057,-1.8074,-1.807,-1.8095,-1.8108,-1.8111,-1.8115,-1.8099,-1.8156,-1.8161,-1.8166,-1.8183,-1.819,-1.8106,-1.8106,-1.8106,-1.8106,0,-1.8121,-1.8132,-1.8149,-1.8147,-1.8152,-1.8169,-1.8153,-1.816,-1.8147,-1.8138,-1.8157,-1.8152,-1.8157,-1.8163,-1.815,-1.8186,-1.8177,-1.816,-1.8131,-1.8177,-1.8192,-1.8198,-1.811,-1.8109,-1.8108,-1.8108,0,0,-1.8195,-1.8185,-1.8191,-1.819,-1.8185,-1.8193,-1.821,-1.8214,-1.822,-1.8221,-1.8234,-1.8247,-1.8231,-1.8232,-1.822,-1.8234,-1.8275,-1.8214,-1.8214,-1.8224,-1.8314,-1.8326,-1.8334,-1.8264,-1.8265,-1.8266,-1.8314,0,-1.8242,-1.8269,-1.8253,-1.8282,-1.8292,-1.8268,-1.8282,-1.8281,-1.8274,-1.8282,-1.8274,-1.8283,-1.8261,-1.8262,-1.8275,-1.8267,-1.8293,-1.8264,-1.8275,-1.8276,-1.8274,-1.8342,-1.8355,-1.84,-1.832,-1.8321,-1.8322,0,-1.83,-1.8303,-1.8333,-1.8326,-1.833,-1.8343,-1.8346,-1.8354,-1.8353,-1.8347,-1.835,-1.8334,-1.835,-1.8325,-1.8347,-1.8328,-1.8332,-1.8329,-1.8331,-1.8329,-1.83,-1.8341,-1.8414,-1.842,-1.8331,-1.8331,-1.833,0,-1.8349,-1.8361,-1.838,-1.8381,-1.8374,-1.8384,-1.8382,-1.8379,-1.8383,-1.8387,-1.8389,-1.8395,-1.8398,-1.8403,-1.8389,-1.8372,-1.8413,-1.8387,-1.8408,-1.8409,-1.8416,-1.8415,-1.8489,-1.8422,-1.8422,-1.8422,-1.8422,0,-1.8402,-1.8421,-1.8402,-1.8414,-1.8435,-1.8418,-1.8439,-1.8435,-1.8433,-1.8443,-1.8424,-1.8435,-1.8417,-1.8426,-1.8416,-1.8436,-1.8438,-1.8433,-1.843,-1.8434,-1.8434,-1.8434,-1.843,-1.8424,-1.8423,-1.8423,-1.8423,0,-1.8459,-1.8448,-1.8467,-1.846,-1.8458,-1.8474,-1.8467,-1.8478,-1.8471,-1.8485,-1.8487,-1.8476,-1.8486,-1.8474,-1.8482,-1.8476,-1.8502,-1.8495,-1.8502,-1.8499,-1.8521,-1.8519,-1.8596,-1.8605,-1.8534,-1.8535,-1.8536,0,-1.8493,-1.8507,-1.8501,-1.8507,-1.8506,-1.8515,-1.8519,-1.8504,-1.851,-1.851,-1.8521,-1.8529,-1.8535,-1.8552,-1.8545,-1.8552,-1.8543,-1.857,-1.8544,-1.8548,-1.8542,-1.854,-1.8542,-1.8575,-1.8576,-1.8576,-1.8577,0,-1.8553,-1.8547,-1.8554,-1.8559,-1.8564,-1.8568,-1.857,-1.8576,-1.856,-1.8568,-1.8577,-1.8582,-1.8591,-1.86,-1.8605,-1.8603,-1.8587,-1.8586,-1.8591,-1.8594,-1.8596,-1.8594,-1.8514,-1.8583,-1.8583,-1.8582,-1.8582,-1.8582,-1.8598,-1.861,-1.8607,-1.8616,-1.8616,-1.8619,-1.8628,-1.8623,-1.863,-1.8636,-1.8628,-1.864,-1.864,-1.8645,-1.8645,-1.8655,-1.8643,-1.8651,-1.8653,-1.8654,-1.8657,-1.8597,-1.8656,-1.8656,-1.8656,-1.8656,-1.8656,0,-1.8656,-1.8654,-1.8662,-1.8665,-1.8672,-1.8658,-1.866,-1.8667,-1.8678,-1.8679,-1.8685,-1.8696,-1.8705,-1.8699,-1.8706,-1.8715,-1.8708,-1.8718,-1.8716,-1.8715,-1.8668,-1.8662,-1.8723,-1.8723,-1.8723,-1.8723,-1.8723,-1.8723,-1.8687,-1.8705,-1.8699,-1.8718,-1.8716,-1.8727,-1.873,-1.8732,-1.8733,-1.8746,-1.8753,-1.875,-1.8748,-1.8755,-1.8763,-1.8761,-1.8764,-1.8775,-1.8771,-1.8726,-1.8719,-1.8712,-1.8707,-1.8777,-1.8777,-1.8818,-1.8818,-1.8818]},{"header":{"parameterUnit":"m.s-1","parameterCategory":1,"la1":30.2991,"la2":30.254,"lo1":-89.0895,"lo2":-89.0444,"dy":0.0017,"dx":0.0017,"nx":28,"ny":28,"refTime":"2024-02-11T03:00:00:Z","depth":0,"parameterNumber":3,"parameterNumberName":"V-component_of_WINDS"},"data":[0,0,0,0,0,0,0,0,0,0,0,0,0,0,0,0,0,0,0,0,0,0,0,0,0,0,0,0,0,0,0,0,0,0,0,0,0,0,0,0,0,0,0,0,0,0,0,0,0,0,0,0,0,0,0,0,0,0,2.1901,2.1901,0,2.1935,2.1935,2.1936,2.1964,2.1964,2.1965,2.1965,2.1998,2.1999,2.2,0,0,0,0,0,0,0,0,0,0,0,0,0,2.186,2.1861,2.1901,2.1901,2.1902,2.1935,2.1935,2.1936,2.1964,2.1964,2.1965,2.1965,2.1998,2.1999,2.2,0,0,0,0,0,0,0,0,0,0,0,0,0,2.1884,2.1861,2.1901,2.192,2.1922,2.1935,2.1935,2.1936,2.1964,2.1964,2.1965,2.1965,2.1998,2.1999,2.2,2.1996,0,0,2.2003,2.2003,0,0,0,0,0,0,0,0,2.1883,2.1886,2.1917,2.1919,2.1921,2.1946,2.1933,2.1956,2.1964,2.1948,2.1965,2.1965,2.198,2.1983,2.1988,2.1998,2.1999,2.2003,2.2003,2.2004,2.2004,0,0,0,0,0,0,0,2.1881,2.1884,2.1914,2.1917,2.192,2.1927,2.193,2.1938,2.1961,2.1949,2.1951,2.1955,2.1982,2.1987,2.1989,2.2,2.2003,2.2003,2.2004,2.2004,2.2009,2.2009,0,0,0,0,0,0,2.1877,2.1883,2.1913,2.1915,2.1903,2.1927,2.1931,2.1937,2.1961,2.1965,2.1955,2.1956,2.1985,2.1988,2.199,2.1989,2.2004,2.2004,2.2005,2.201,2.2009,2.2009,0,0,0,0,0,0,2.1876,2.1879,2.1912,2.19,2.1904,2.1927,2.1934,2.1938,2.1943,2.1965,2.1969,2.1956,2.1986,2.1989,2.1995,2.199,2.2005,2.2006,2.201,2.201,2.2009,2.1985,0,0,0,0,0,0,2.1874,2.1879,2.1878,2.19,2.1905,2.1916,2.1933,2.1938,2.1945,2.1947,2.1968,2.1971,2.1986,2.1993,2.1996,2.1992,2.2006,2.2011,2.201,2.2009,2.1986,2.1984,2.1982,0,0,0,0,0,2.1873,2.1869,2.1877,2.1881,2.1904,2.1916,2.1919,2.1937,2.1944,2.1944,2.1958,2.1971,2.199,2.1994,2.1997,2.1993,2.2011,2.201,2.2009,2.1988,2.1984,2.1982,0,0,0,0,0,0,2.1845,2.1872,2.1882,2.1885,2.1898,2.192,2.192,2.1932,2.1943,2.1945,2.1966,2.197,2.1974,2.1984,2.1987,2.1991,2.2003,2.2002,2.1985,2.1982,2.198,2.1977,2.2007,0,0,0,0,0,2.184,2.1847,2.187,2.1871,2.1877,2.1897,2.1903,2.1915,2.1929,2.1935,2.195,2.1962,2.1972,2.1977,2.1987,2.1988,2.1993,2.1987,2.1984,2.1982,2.1982,2.1984,2.1982,2.2006,2.2006,2.2006,0,0,2.1828,2.1844,2.1847,2.1865,2.1877,2.1884,2.1902,2.1908,2.1914,2.1936,2.1943,2.1954,2.197,2.1973,2.1976,2.1982,2.1976,2.1981,2.1979,2.198,2.1983,2.1981,2.1978,2.2005,2.2005,2.2005,0,0,2.1811,2.1823,2.1826,2.1837,2.1854,2.1868,2.1869,2.1889,2.1898,2.1905,2.1922,2.1929,2.1944,2.1955,2.1962,2.195,2.1963,2.1952,2.194,2.1942,2.194,2.1938,2.1935,2.1933,2.1952,2.1952,2.1952,0,2.1794,2.1806,2.1825,2.1831,2.1839,2.186,2.1863,2.1872,2.1892,2.1897,2.1903,2.1924,2.1936,2.1943,2.194,2.1945,2.1946,2.195,2.1938,2.1937,2.1936,2.1933,2.1931,2.195,2.1951,2.1951,2.1951,0,2.1785,2.1793,2.1793,2.1812,2.182,2.1824,2.1844,2.1849,2.1861,2.1874,2.1882,2.1897,2.191,2.1913,2.1924,2.1922,2.1925,2.1935,2.1946,2.1932,2.193,2.1928,2.1949,2.1949,2.1949,2.195,0,0,2.1752,2.1782,2.1782,2.1791,2.1812,2.1818,2.1823,2.1837,2.1842,2.1855,2.186,2.1873,2.1882,2.1891,2.1903,2.1905,2.1895,2.1914,2.1915,2.1911,2.1894,2.1888,2.1886,2.1903,2.1903,2.1903,2.1893,0,2.1739,2.175,2.1768,2.1773,2.1781,2.1801,2.1806,2.1819,2.1831,2.184,2.1853,2.1862,2.1874,2.1879,2.1881,2.1896,2.1892,2.1897,2.1909,2.1909,2.1905,2.1884,2.1877,2.1867,2.1892,2.1892,2.1892,0,2.1725,2.1738,2.1744,2.1765,2.1769,2.1773,2.1788,2.1795,2.1811,2.182,2.183,2.1844,2.185,2.186,2.187,2.1873,2.1879,2.1887,2.1887,2.1889,2.19,2.1887,2.1865,2.1863,2.189,2.1891,2.1891,0,2.1702,2.172,2.1727,2.1734,2.1758,2.1761,2.1771,2.1787,2.1794,2.1807,2.1812,2.1825,2.1832,2.1841,2.1858,2.1864,2.1866,2.1878,2.1874,2.1874,2.1875,2.1875,2.1854,2.1877,2.1877,2.1877,2.1877,0,2.1686,2.169,2.1717,2.1721,2.1725,2.1745,2.1749,2.1761,2.1775,2.1782,2.1799,2.1805,2.1827,2.1836,2.1849,2.1856,2.1858,2.1866,2.187,2.1865,2.1864,2.187,2.1871,2.1877,2.1877,2.1877,2.1877,0,2.1661,2.1679,2.1688,2.171,2.1716,2.1719,2.1738,2.1743,2.1756,2.1765,2.1768,2.1789,2.18,2.1818,2.1833,2.1842,2.1847,2.1852,2.1842,2.1844,2.184,2.1841,2.1823,2.1822,2.1845,2.1845,2.1844,0,2.165,2.1654,2.1677,2.1683,2.1693,2.1702,2.171,2.173,2.1737,2.1755,2.1758,2.177,2.1782,2.1798,2.1815,2.1827,2.1834,2.1827,2.1836,2.1831,2.1835,2.1835,2.1835,2.1825,2.1824,2.1824,2.1824,0,2.163,2.1639,2.165,2.1664,2.1673,2.1685,2.1697,2.1701,2.1724,2.1731,2.1743,2.1751,2.1768,2.1781,2.1795,2.1806,2.1819,2.1821,2.1821,2.1817,2.1811,2.1815,2.1837,2.1821,2.1822,2.1822,2.1822,2.1822,2.1612,2.1617,2.1634,2.1645,2.1657,2.1669,2.1675,2.1689,2.1699,2.1715,2.1726,2.1737,2.1753,2.1774,2.1784,2.1793,2.1799,2.1799,2.1799,2.1799,2.1797,2.1809,2.1796,2.1796,2.1796,2.1796,2.1796,0,2.1594,2.1606,2.1616,2.1634,2.1643,2.1655,2.1669,2.1676,2.1686,2.17,2.1711,2.1725,2.1737,2.1754,2.1768,2.1772,2.1778,2.1775,2.1775,2.1777,2.1791,2.179,2.177,2.177,2.177,2.177,2.177,2.177,2.1585,2.1593,2.1604,2.1618,2.163,2.1642,2.1649,2.166,2.1672,2.1686,2.1697,2.1708,2.1724,2.1739,2.175,2.1755,2.176,2.1755,2.1761,2.1774,2.1776,2.1779,2.1778,2.1755,2.1755,2.1747,2.1747,2.1747]}]]